Regional Weather Roundup
Issued by NWS

Home | Current Version | Previous Version | Text Only | Print | Product List | Glossary On
Versions: 1 2 3 4 5 6 7 8 9 10 11 12 13 14 15 16 17 18 19 20 21 22 23 24 25 26 27 28 29 30 31 32 33 34 35 36 37 38 39 40 41 42 43 44 45 46 47 48 49 50
411
ASUS43 KLSX 251757
RWRMO

WEATHER SUMMARY FOR MISSOURI
NATIONAL WEATHER SERVICE SPRINGFIELD MO
100 PM CDT WED MAY 25 2016

NOTE: "FAIR" INDICATES FEW OR NO CLOUDS BELOW 12,000 FEET WITH NO
       SIGNIFICANT WEATHER AND/OR OBSTRUCTIONS TO VISIBILITY.
       CURRENT SKY AND/OR WEATHER CONDITIONS ARE NOT AVAILABLE FOR
       CHILLICOTHE AND FARMINGTON.

MOZ001>031-035>038-043-044-053-054-251900-
...NORTHERN AND WESTERN MISSOURI...

CITY           SKY/WX    TMP DP  RH WIND       PRES   REMARKS
KANSAS CTY INT CLOUDY    72  63  73 E6        29.93F
6HR MIN TEMP:  66; 6HR MAX TEMP:  74; 6HR PCP:  0.21;

LEE`S SUMMIT   PTSUNNY   76  64  66 N9        29.96R
6HR MIN TEMP:  66; 6HR MAX TEMP:  76;

ST JOSEPH      CLOUDY    72  62  71 SE7       29.91F
6HR MIN TEMP:  68; 6HR MAX TEMP:  73; 6HR PCP:  0.02;

CHILLICOTHE      N/A     80  63  55 VRB3      29.95R
6HR MIN TEMP:  66; 6HR MAX TEMP:  80;


$$
MOZ066>068-077>081-088>096-101>105-251900-
...SOUTHWEST MISSOURI...

CITY           SKY/WX    TMP DP  RH WIND       PRES   REMARKS
SPRINGFIELD    CLOUDY    73  59  61 SE17      29.95R
6HR MIN TEMP:  64; 6HR MAX TEMP:  73; 6HR PCP:  0.28;

JOPLIN         SUNNY     80  63  55 S7        29.95R
6HR MIN TEMP:  63; 6HR MAX TEMP:  81; 6HR PCP:  0.31;

BRANSON        PTSUNNY   66  64  94 SE7       30.01R

$$
MOZ032>034-039>042-045>050-055>058-069>072-251900-
...CENTRAL MISSOURI...

CITY           SKY/WX    TMP DP  RH WIND       PRES   REMARKS
COLUMBIA       NOT AVBL
JEFFERSON CITY MOSUNNY   78  63  59 SE8       29.93S
6HR MIN TEMP:  63; 6HR MAX TEMP:  78; 6HR PCP: TRACE;

ROLLA          CLOUDY    72  62  71 S16       29.94F
6HR MIN TEMP:  64; 6HR MAX TEMP:  75; 6HR PCP: TRACE;

SEDALIA        CLOUDY    80  64  58 MISG      29.95S
6HR MIN TEMP:  66; 6HR MAX TEMP:  80;

WARRENSBURG    CLOUDY    73  63  68 CALM      29.95R

$$
MOZ051-052-059>065-251900-
...EAST CENTRAL MISSOURI...

CITY           SKY/WX    TMP DP  RH WIND       PRES   REMARKS
ST LOUIS INTL  CLOUDY    77  66  68 SE13G18   29.99F
6HR MIN TEMP:  68; 6HR MAX TEMP:  79; 6HR PCP:  0.01;


$$
MOZ072>076-082>087-097>100-106>115-251900-
...SOUTH CENTRAL AND SOUTHEAST MISSOURI...

CITY           SKY/WX    TMP DP  RH WIND       PRES   REMARKS
CAPE GIRARDEAU PTSUNNY   72  68  87 SW8       30.07S
6HR MIN TEMP:  66; 6HR MAX TEMP:  76; 6HR PCP:  0.03;

POPLAR BLUFF   CLOUDY    74  67  78 S9        30.05F
6HR MIN TEMP:  64; 6HR MAX TEMP:  75; 6HR PCP: TRACE;

WEST PLAINS    RAIN      65  61  87 SW10      30.10R FOG
6HR MIN TEMP:  63; 6HR MAX TEMP:  72; 6HR PCP:  0.12;


$$



USA.gov is the U.S. government's official web portal to all federal, state and local government web resources and services.